Ashtabula, OH

6:18 PM EST on December 14, 2019 (GMT -0500)
Ashtabula County

Weather History for KHZY - September, 2019

Change the Weather History Date:

Sunday, September 15, 2019

  Actual Average (WUND) Record (WUND)
Temperature  
Mean Temperature 64 °F -  
Max Temperature 73 °F - - (-1)
Min Temperature 55 °F - - (-1)
Degree Days  
Heating Degree Days 1    
Growing Degree Days 14 (Base 50)    
Moisture  
Dew Point 61 °F    
Average Humidity 87    
Maximum Humidity 100    
Minimum Humidity 71    
Precipitation  
Precipitation 0.00 in - - ()
Sea Level Pressure  
Sea Level Pressure 30.16 in    
Wind  
Wind Speed 3 mph (South)    
Max Wind Speed 10 mph    
Max Gust Speed -    
Visibility 10 miles    
Events      
Averages and records for this station are not official NWS values.
T = Trace of Precipitation, MM = Missing Value Source: NWS Daily Summary

Daily Weather History Graph

Daily Weather History Graph

Search for Another Location

Airport or City:

Astronomy

Sep. 15, 2019 Rise Set
Actual Time 7:02 AM EDT 7:32 PM EDT
Civil Twilight 6:34 AM EDT 8:00 PM EDT
Nautical Twilight 6:01 AM EDT 8:33 PM EDT
Astronomical Twilight 5:27 AM EDT 9:07 PM EDT
Moon 8:38 PM EDT (9/15) 8:11 AM EDT (9/15)
Length of Visible Light 13h 25m
Length of Day
12h 29m
Full, 98% of the Moon is Illuminated
Sep 15
Full
Sep 21
Last Quarter
Sep 28
New
Oct 5
First Quarter
Oct 13
Full

Hourly Weather History & Observations

Time (EDT) Temp. Dew Point Humidity Pressure Visibility Wind Dir Wind Speed Gust Speed Precip Events Conditions
12:53 AM 57.0 °F 57.0 °F 100% 30.22 in 10.0 mi Calm Calm - N/A   Clear
1:53 AM 57.9 °F 57.0 °F 97% 30.22 in 10.0 mi Calm Calm - N/A   Clear
2:53 AM 57.0 °F 57.0 °F 100% 30.21 in 10.0 mi Calm Calm - N/A   Clear
4:53 AM 55.9 °F 55.0 °F 97% 30.19 in 10.0 mi Calm Calm - N/A   Clear
5:53 AM 55.9 °F 55.0 °F 97% 30.19 in 10.0 mi Calm Calm - N/A   Clear
6:53 AM 55.9 °F 55.0 °F 97% 30.21 in 10.0 mi Calm Calm - N/A   Clear
7:53 AM 57.0 °F 55.9 °F 96% 30.20 in 10.0 mi SSE 3.5 mph - N/A   Clear
8:53 AM 60.1 °F 59.0 °F 96% 30.22 in 10.0 mi SSW 4.6 mph - N/A   Clear
9:53 AM 64.9 °F 62.1 °F 90% 30.20 in 10.0 mi South 9.2 mph - N/A   Clear
10:53 AM 66.9 °F 62.1 °F 84% 30.22 in 10.0 mi SW 9.2 mph - N/A   Mostly Cloudy
11:53 AM 69.1 °F 62.1 °F 78% 30.20 in 10.0 mi South 6.9 mph - N/A   Mostly Cloudy
12:53 PM 73.0 °F 63.0 °F 71% 30.19 in 10.0 mi WSW 6.9 mph - N/A   Overcast
1:53 PM 72.0 °F 64.0 °F 76% 30.19 in 10.0 mi SSW 6.9 mph - N/A   Mostly Cloudy
2:53 PM 72.0 °F 64.9 °F 78% 30.17 in 10.0 mi SSW 8.1 mph - N/A   Overcast
3:53 PM 73.0 °F 64.0 °F 73% 30.14 in 10.0 mi SSW 10.4 mph - N/A   Scattered Clouds
4:53 PM 72.0 °F 63.0 °F 73% 30.12 in 10.0 mi SSW 6.9 mph - N/A   Mostly Cloudy
5:53 PM 73.0 °F 63.0 °F 71% 30.11 in 10.0 mi SSW 6.9 mph - N/A   Mostly Cloudy
6:53 PM 70.0 °F 63.0 °F 78% 30.10 in 10.0 mi SSE 4.6 mph - N/A   Overcast
7:53 PM 69.1 °F 63.0 °F 81% 30.09 in 10.0 mi SSE 3.5 mph - N/A   Overcast
8:53 PM 68.0 °F 63.0 °F 84% 30.09 in 10.0 mi Calm Calm - N/A   Overcast
9:53 PM 66.9 °F 64.9 °F 93% 30.09 in 10.0 mi SE 4.6 mph - 0.00 in   Overcast
10:53 PM 68.0 °F 64.9 °F 90% 30.09 in 10.0 mi ESE 5.8 mph - N/A   Overcast
11:53 PM 66.9 °F 64.9 °F 93% 30.08 in 10.0 mi SE 4.6 mph - N/A   Overcast